Back to catalog

COSMOS 1691 DEB

AlivePO
NORAD 16266·DEBRIS·🇷🇺 Russia

Launched Oct 9, 1985 from Plesetsk Cosmodrome

Loading…

Next Passes (next 24 hours)

TLE

FreshSource: Space-Track

Epoch: Sep 14, 2026, 06:45 UTC

1 16266U 85094K   26257.28134031  .00000262  00000-0  13236-2 0  9998
2 16266  82.6047 189.2189 0008312  96.7714  57.1863 12.66762124888760

Track COSMOS 1691 DEB in real time with AllMySat

Download on the App Store